Location: Byszew
(52.1813°N, 19.2693°E)
Time: 21:38:29
(UTC+00:00)

Cosmos 2369 Rocket - Pass Details

Date: 03 March 2021
Orbit: 829 x 852 km, 71.0° (Epoch: 15 April)

Event Time Altitude Azimuth Distance (km) Brightness Sun altitude
Rises 21:28:51 0° 328° (NNW) 3,384 6.2 -41.0°
Reaches altitude 10° 21:31:17 10° 327° (NNW) 2,448 5.3 -41.2°
Enters shadow 21:32:56 20° 325° (NW) 1,839 4.4 -41.3°
